COSMOS 663 DEB, 53881

Orbit data source: Space-Track

COSMOS 663 DEB, 53881 is space debris in LEO originally from a launch on Thu, 27 Jun 1974 UTC launched from the Plesetsk Missile And Space Complex (PKMTR). Debris objects in space refer to the collection of defunct objects orbiting the Earth. Examples of debris include non-operational satellites, rocket bodies, and fragments generated from explosions, collisions, or faulty payload assembly.

Loading next visibility...
Identifier
53881, 1974-048D
Orbit
LEO
Country
Flag of CISCIS
Related business
Manufacturer
Unknown
Mission
Spacecraft
Bus & Motor
Unknown
Mass
Unknown
Launch date (UTC)
1974-06-27 (52 years ago)
Launch vehicle
Unknown
Launch site
Plesetsk Missile And Space Complex (PKMTR)
Object type
Payload
Rocket body
Debris
Shape & HBR
Unknown shape, 0.1 m
Radar Cross Section
Small (<0.1 m²)

Expand to show TLE details & history
Last TLE update: 1 week ago

TLE from 1 week ago
0 COSMOS 663 DEB
1 53881U 74048D   26165.76832964  .00000362  00000-0  34971-3 0  9991
2 53881  82.9495 175.1435 0022972 249.5463 110.3228 13.77325427191420
Epoch: 2026-06-14T18:26Z
TLE epoch observation values (Epoch: 2026-06-14T18:26:23.680Z)
Latitude
-0.00004°
Longitude
-4.5195°
Altitude
982.192 km
Speed
7.358 km/s
True Right ascension
11h 40m 34s
True Declination
0° 00' 00"
Sunlit
Object was in daylight at epoch
Visualization orbit readout
Latitude
Unknown
Longitude
Unknown
Altitude
Unknown
Speed
Unknown
Apparent Right ascension
Unknown
Apparent Declination
Unknown
Sunlit
N/A
Visualization observer readout
Local Sidereal Time
21:31:59
Azimuth
Unknown
Elevation
Unknown
Doppler factor
Unknown
Orbital elements
Apogee altitude
987.415 km
Perigee altitude
953.652 km
Semi-major axis
7,348.671 km
Eccentricity
0.0023
Inclination
82.9495°
RAAN
175.1435°
Arg. of periapsis
249.5463°
True anomaly
110.56941°
Mean anomaly
110.3228°
Eccentric anomaly
110.44613°
Mean motion
3.44532 °/min
Orbital period
104.49 mins
BSTAR
0.00034971
Loading maneuver chart data...
Computing Atmospheric mass density...
Loading historical data...
Loading historical data...
Loading historical data...
Loading historical data...
Loading historical data...
Loading historical data...
Loading historical data...
Other satellites on launch #48 in the year 1974 (1974-06-27 UTC)

Documentation

Showing up to 5 results
|